Weather in Emekovo

Russia / Mari El Republic     55°59′12″N   48°25′35″E
temp.,
°C
wind,
m/s
gust,
m/s
humid.,
%
clouds,
%
prec.,
mm/h
press.,
hPa
HPBL,
m
3 march, wed
wed300:00−6w379733 0.0 1000149
03:00−5w389751 0.0 1000223
06:00−4wnw4109590 0.1 1000501
09:00−5wnw5109295 0.3 1002650
12:00−3nw61092100 0.4 1002860
15:00−4nw6988100 0.6 1004801
18:00−6wnw5990100 0.1 1005730
21:00−6wnw4991100 0.2 1005703
4 march, thu
thu400:00−10sw379697 0.1 1003143
03:00−5wsw5129598 0.5 1001624
06:00−4wsw51193100 0.1 999654
09:00−3wsw61294100 0.7 997792
12:00−1wsw71293100 0.7 994903
15:000w7128695 1.4 9931373
18:00−3w5138463 0.1 995692
21:00−6w4119182 0.1 998400
5 march, fri
fri500:00−8w3597100 0.0 998121
03:00−9wnw2297100 0.1 100025
06:00−11nnw2296100 0.0 100134
09:00−9n2493100 0.0 1002227
12:00−7nnw3587100 0.0 1003478
15:00−7nnw368596 0.0 1005682
18:00−12nw249292 0.0 100879
21:00−15wnw239560 0.0 101125
6 march, sat
sat600:00−17wnw22987 0.0 101220
03:00−17wsw129825 0.0 101320
06:00−17sw229761 0.0 101220
09:00−13sw249353 0.0 1012172
12:00−9sw358983 0.0 1012370
15:00−8wsw359284 0.1 1011463
18:00−11w379598 0.1 1011188
21:00−16nw229296 0.1 101222
7 march, sun
sun700:00−18w229731 0.0 101220
03:00−18wsw239846 0.0 101270
06:00−18sw249898 0.1 1011103
09:00−14ssw489189 0.1 1010277
12:00−11ssw5108799 0.0 1008535
15:00−9s71288100 0.1 1004862
18:00−7s71493100 0.7 10011110
21:00−6ssw81593100 1.9 9971179